Location: Bannatyne
(13.0833°N, 59.5333°W)
Time: 03:28:53
(UTC+00:00)

deb Explorer IX - Pass Details

Date: 29 January 2020
Orbit: 549 x 1099 km, 38.8° (Epoch: 17 February)

Event Time Altitude Azimuth Distance (km) Brightness Sun altitude
Rises 19:23:07 0° 184° (S) 2,939 ? 33.4°
Reaches altitude 10° 19:28:00 10° 139° (SE) 2,189 ? 32.4°
Maximum altitude 19:28:32 10° 133° (SE) 2,197 ? 32.3°
Drops below altitude 10° 19:29:05 10° 127° (SE) 2,227 ? 32.2°
Sets 19:34:31 0° 85° (E) 3,351 ? 31.1°
